User: anonymous
Location: Caltech
(34.1382°N, 118.1253°W)
Time: 00:01:34
(UTC-07:00)
Language:

Cosmos 1733 Rocket - Orbit

View from above orbital plane
View from above orbital plane
View from above satellite
View from above satellite

Ground track
Ground track

The orbit data is extracted from the following two-line orbital elements,

1 16612U 86018B   14245.14197383  .00000270  00000-0  29808-4 0  9968
2 16612 082.5201 172.2670 0016260 274.8760 218.0236 14.83614101440324
Epoch (UTC): 02 September 2014 03:24:26
Eccentricity: 0.0016260
inclination: 82.5201°
perigee height: 606 km
apogee height: 629 km
right ascension of ascending node: 172.2670°
argument of perigee: 274.8760°
revolutions per day: 14.83614101
mean anomaly at epoch: 218.0236°
orbit number at epoch: 44032

The dashed part of the orbit path shows where the satellite is in the earth's shadow,  

DLR